Glendale Luke AFB, AZ

9:47 PM MST on November 19, 2019 (GMT -0700)
Luke Air Force Base

Weather History for KLUF - September, 2019

Change the Weather History Date:

Sunday, September 1, 2019

  Actual Average Record
Temperature  
Mean Temperature 96 °F -  
Max Temperature 107 °F 105 °F 115 °F (1950)
Min Temperature 85 °F 72 °F 59 °F (1962)
Cooling Degree Days 31    
Growing Degree Days 46 (Base 50)    
Moisture  
Dew Point 59 °F    
Average Humidity 32    
Maximum Humidity 55    
Minimum Humidity 18    
Precipitation  
Precipitation 0.00 in - - ()
Sea Level Pressure  
Sea Level Pressure 29.82 in    
Wind  
Wind Speed 14 mph (South)    
Max Wind Speed 34 mph    
Max Gust Speed 46 mph    
Visibility 9 miles    
Events      
Averages and records for this station are not official NWS values.
T = Trace of Precipitation, MM = Missing Value Source: NWS Daily Summary

Daily Weather History Graph

Daily Weather History Graph

Search for Another Location

Airport or City:

Astronomy

Sep. 01, 2019 Rise Set
Actual Time 6:03 AM MST 6:55 PM MST
Civil Twilight 5:38 AM MST 7:20 PM MST
Nautical Twilight 5:08 AM MST 7:50 PM MST
Astronomical Twilight 4:37 AM MST 8:21 PM MST
Moon 8:32 AM MST (9/1) 8:52 PM MST (9/1)
Length of Visible Light 13h 42m
Length of Day
12h 51m
Waxing Crescent, 8% of the Moon is Illuminated
Sep 1
Waxing Crescent
Sep 5
First Quarter
Sep 13
Full
Sep 21
Last Quarter
Sep 28
New

Hourly Weather History & Observations

Time (MST) Temp. Heat Index Dew Point Humidity Pressure Visibility Wind Dir Wind Speed Gust Speed Precip Events Conditions
12:58 AM 96.4 °F 95.3 °F 56.8 °F 27% 29.75 in 10.0 mi SW 11.5 mph - N/A   Scattered Clouds
1:58 AM 93.2 °F 92.6 °F 58.8 °F 32% 29.77 in 10.0 mi SW 17.3 mph - N/A   Partly Cloudy
2:58 AM 90.7 °F 90.4 °F 60.1 °F 36% 29.78 in 10.0 mi SW 18.4 mph - N/A   Clear
3:58 AM 90.3 °F 89.9 °F 59.7 °F 36% 29.81 in 10.0 mi SW 19.6 mph - N/A   Partly Cloudy
4:58 AM 89.2 °F 89.3 °F 61.0 °F 39% 29.84 in 10.0 mi WSW 17.3 mph - N/A   Clear
5:58 AM 88.7 °F 89.4 °F 62.6 °F 42% 29.83 in 10.0 mi West 10.4 mph - N/A   Clear
6:58 AM 89.4 °F 90.2 °F 62.6 °F 41% 29.88 in 10.0 mi West 6.9 mph - N/A   Clear
7:58 AM 90.3 °F 93.0 °F 66.0 °F 45% 29.90 in 10.0 mi South 6.9 mph - N/A   Clear
8:58 AM 91.8 °F 93.8 °F 65.3 °F 41% 29.90 in 10.0 mi Calm Calm - N/A   Clear
9:58 AM 95.7 °F 95.9 °F 61.0 °F 31% 29.88 in 10.0 mi East 5.8 mph - N/A   Clear
10:58 AM 97.5 °F 98.2 °F 61.7 °F 30% 29.87 in 10.0 mi ESE 5.8 mph - N/A   Clear
11:58 AM 99.3 °F 100.1 °F 60.4 °F 28% 29.86 in 10.0 mi SE 5.8 mph - N/A   Clear
12:58 PM 100.2 °F 100.5 °F 60.1 °F 26% 29.83 in 10.0 mi Calm Calm - N/A   Partly Cloudy
2:58 PM 105.1 °F 104.4 °F 55.8 °F 20% 29.76 in 10.0 mi WSW 8.1 mph - N/A   Clear
3:58 PM 106.3 °F 106.3 °F 56.8 °F 20% 29.73 in 10.0 mi WSW 10.4 mph 19.6 mph N/A   Clear
4:58 PM 105.6 °F 105.2 °F 56.3 °F 20% 29.74 in 10.0 mi West 5.8 mph - N/A   Clear
5:44 PM 107.6 °F 106.8 °F 55.4 °F 18% 29.77 in 2.0 mi ESE 20.7 mph 46.0 mph N/A   Mostly Cloudy
5:52 PM 102.2 °F 101.4 °F 57.2 °F 22% 29.78 in 5.0 mi East 34.5 mph 46.0 mph N/A   Haze
5:58 PM 99.5 °F 97.6 °F 53.8 °F 22% 29.78 in 4.0 mi East 33.4 mph 43.7 mph N/A   Haze
6:08 PM 98.6 °F 96.4 °F 53.6 °F 22% 29.79 in 6.0 mi East 33.4 mph 44.9 mph N/A   Haze
6:16 PM 96.8 °F 95.1 °F 55.4 °F 25% 29.79 in 8.0 mi East 25.3 mph 44.9 mph N/A   Mostly Cloudy
6:26 PM 96.8 °F 94.4 °F 53.6 °F 23% 29.78 in 10.0 mi East 26.5 mph 40.3 mph N/A   Scattered Clouds
6:40 PM 96.8 °F 94.4 °F 53.6 °F 23% 29.77 in 10.0 mi East 25.3 mph 31.1 mph N/A   Light Drizzle
6:50 PM 98.6 °F - 51.8 °F 21% 29.77 in 10.0 mi East 19.6 mph - N/A   Partly Cloudy
6:58 PM 97.7 °F 95.6 °F 53.6 °F 23% 29.77 in 10.0 mi East 15.0 mph - 0.00 in   Partly Cloudy
7:00 PM 96.8 °F 94.4 °F 53.6 °F 23% 29.77 in 10.0 mi East 11.5 mph - N/A   Light Drizzle
7:14 PM 96.8 °F 94.4 °F 53.6 °F 23% 29.77 in 10.0 mi SSE 6.9 mph - N/A   Scattered Clouds
7:32 PM 96.8 °F - 51.8 °F 22% 29.80 in 10.0 mi West 10.4 mph - N/A   Partly Cloudy
7:58 PM 95.0 °F 95.6 °F 61.3 °F 33% 29.83 in 10.0 mi WSW 28.8 mph 35.7 mph 0.00 in   Scattered Clouds
8:08 PM 87.8 °F 91.4 °F 68.0 °F 52% 29.83 in 6.0 mi SW 27.6 mph 40.3 mph N/A   Haze
8:18 PM 86.0 °F 89.4 °F 68.0 °F 55% 29.84 in 10.0 mi WSW 25.3 mph 34.5 mph N/A   Scattered Clouds
8:58 PM 86.2 °F 86.6 °F 61.7 °F 44% 29.85 in 10.0 mi West 19.6 mph - N/A   Scattered Clouds
9:58 PM 85.5 °F 87.6 °F 65.8 °F 52% 29.93 in 10.0 mi North 3.5 mph - N/A   Mostly Cloudy
10:58 PM 85.8 °F 87.1 °F 63.9 °F 48% 29.93 in 10.0 mi ESE 5.8 mph - N/A   Clear
11:58 PM 86.5 °F 87.6 °F 63.3 °F 46% 29.90 in 10.0 mi NNW 9.2 mph - N/A   Scattered Clouds